Погода в Черёмушках

Россия / Республика Хакасия     52°51′02″N   91°25′11″E
темп.,
°C
ветер,
м/с
пор.,
м/с
влажн.,
%
обл.,
%
осадки,
мм/ч
давл.,
гПа
погр.,
м
4 июля, пн
пн401:00+7ююз22925 0.1 101016
04:00+6ююз11935 0.0 101014
07:00+11ю12725 0.0 1009148
10:00+18зюз134159 0.0 10072062
13:00+17с224359 0.0 10071236
16:00+20ссз233450 0.0 10062325
19:00+19с22435 0.0 1005908
22:00+11в11734 0.0 100711
5 июля, вт
вт501:00+9юв21824 0.0 100713
04:00+7ююв22855 0.0 100619
07:00+13ююв22625 0.0 1003132
10:00+21юв12376 0.0 1000867
13:00+26з142787 0.0 9992527
16:00+25с2230100 0.0 9971631
19:00+14всв2389100 1.1 100149
22:00+14юв119399 0.1 100112
6 июля, ср
ср601:00+11зюз3595100 1.1 1005346
04:00+10ю1298100 3.3 100577
07:00+11ююз2293100 3.8 100658
10:00+15з3881100 1.4 10061358
13:00+16зсз2476100 3.7 1006773
16:00+15з2581100 2.3 10071057
19:00+15ююз127499 2.8 1007183
22:00+10з228956 0.3 101038
7 июля, чт
чт701:00+10зюз1191100 0.4 101021
04:00+10ю2294100 0.3 100944
07:00+11ююв119298 0.3 101036
10:00+14юз1281100 0.3 100997
13:00+17з245483 0.4 10091501
16:00+16зсз2371100 0.6 1010754
19:00+13з1187100 1.3 101070
22:00+11ююз118845 0.1 101011
8 июля, пт
пт801:00+11юз2292100 0.1 101134
04:00+10ююз1192100 0.0 101026
07:00+12ююз128895 0.0 100986
10:00+15зсз1174100 0.4 1008312
13:00+17зсз237524 2.3 1008989
16:00+21з134813 1.0 10061528
19:00+19с2156100 1.0 1006805
22:00+11ссв229549 0.1 100732